Regional Weather Roundup
Issued by NWS

Home | Current Version | Previous Version | Text Only | Print | Product List | Glossary Off
Versions: 1 2 3 4 5 6 7 8 9 10 11 12 13 14 15 16 17 18 19 20 21 22 23 24 25 26 27 28 29 30 31 32 33 34 35 36 37 38 39 40 41 42 43 44 45 46 47 48 49 50

000
ASUS43 KMPX 290210
RWRMN
WEATHER ROUNDUP FOR MINNESOTA
NATIONAL WEATHER SERVICE TWIN CITIES/CHANHASSEN MN
900 PM CDT TUE JUL 28 2015


NOTE: "FAIR" INDICATES FEW OR NO CLOUDS BELOW 12,000 FEET WITH NO
SIGNIFICANT WEATHER AND/OR OBSTRUCTIONS TO VISIBILITY. N/A MEANS
CURRENT SKY AND/OR WEATHER CONDITIONS ARE NOT AVAILABLE.

MNZ060>063-068>070-290300-
   Twin Cities Metro

CITY           SKY/WX    TMP DP  RH WIND       PRES   REMARKS
TWIN CITIES    PTCLDY    79  60  52 W18       29.85R
ST PAUL        MOCLDY    80  66  62 W21       29.84R
CRYSTAL        CLEAR     78  61  55 W13       29.85R
BLAINE         PTCLDY    81  63  54 W14G22    29.85R
LAKEVILLE      PTCLDY    75  66  73 W9G16     29.87R
EDEN PRAIRIE   CLEAR     76  62  62 W10       29.86R
SOUTH ST PAUL  MOCLDY    80  69  69 W10       29.84S
LAKE ELMO      CLOUDY    79  70  73 W9        29.85S
$$
MNZ001>005-007-008-013>017-022>024-027-028-290300-
   Northwest Minnesota

CITY           SKY/WX    TMP DP  RH WIND       PRES   REMARKS
BEMIDJI        CLEAR     70  55  58 SW10G16   29.74S
HALLOCK        PTCLDY    70  52  52 SW28G35   29.51F
ROSEAU         CLOUDY    72  57  60 S22G30    29.57F
WARROAD        CLOUDY    70  57  64 S10G16    29.59F
THIEF RVR FALL PTCLDY    70  50  49 SW24G36   29.65R
CROOKSTON      CLEAR     70  52  52 SW18G31   29.66S
FOSSTON        MOCLDY    66  55  68 SW15G21   29.72R
DETROIT LAKES  PTCLDY    72  52  49 W14G25    29.81R
MOORHEAD       CLEAR     70  52  52 SW14G21   29.77S
PARK RAPIDS    PTCLDY    72  52  49 SW16      29.79R
MAHNOMEN       MOCLDY    69  52  53 SW18G30   29.75R
$$
MNZ006-009>011-018-025>026-290300-
   North Central Minnesota

CITY           SKY/WX    TMP DP  RH WIND       PRES   REMARKS
BAUDETTE       MOCLDY    70  54  56 S14       29.64F
FLAG ISLAND    CLOUDY    73  57  56 S16G23    29.56F
INTL FALLS     MOCLDY    72  57  59 SW10G20   29.69R
WASKISH        CLEAR     70  55  60 S9        29.69F
BIG FORK       CLEAR     72  55  56 SW10G18   29.75R
LONGVILLE      PTCLDY    72  55  56 SW7       29.79S
GRAND RAPIDS   PTCLDY    72  55  56 SW9       29.79R
CRANE LAKE     MOCLDY    75  66  73 S6        29.70S
ORR            PTCLDY    73  55  53 SW7       29.71R
COOK           CLEAR     75  63  64 SW7       29.74R
WALKER         MOCLDY    70  54  57 SW9       29.77S
$$
MNZ012-019>021-037-290300-
   Northeast Minnesota

CITY           SKY/WX    TMP DP  RH WIND       PRES   REMARKS
DULUTH         MOCLDY    77  69  76 SW9       29.79R
ELY            CLOUDY    77  64  65 SW14G20   29.74R
HIBBING        PTCLDY    75  61  61 SW9       29.77R
EVELETH        CLEAR     73  66  78 SW10G16   29.77R
DULUTH HARBOR  CLOUDY    81  72  74 SW13      29.76R
TWO HARBORS    CLOUDY    79  72  78 S8        29.75S
SILVER BAY     MOCLDY    75  66  73 S3        29.75S
GRAND MARAIS     N/A     64  60  87 E3        29.75F
G MARAIS ARPRT MOCLDY    70  63  78 S5        29.82S
$$
MNZ029>031-032-039>041-046>048-054>057-064-290300-
   West Central Minnesota

CITY           SKY/WX    TMP DP  RH WIND       PRES   REMARKS
FERGUS FALLS   CLEAR     70  52  52 W16G24    29.82R
WHEATON        CLEAR     68  52  56 W8        29.88R
MORRIS         CLEAR     70  55  60 W8        29.88R
ALEXANDRIA     CLEAR     72  55  55 W17G24    29.87R
ELBOW LAKE     FAIR      70  53  54 W14       29.86R
WADENA         CLEAR     72  54  53 SW14G29   29.82R
GLENWOOD       CLEAR     72  57  60 W12G18    29.87S
APPLETON       CLEAR     72  55  56 W12       29.88R
BENSON         CLEAR     70  57  64 W7        29.88R
ORTONVILLE     CLEAR     73  52  46 W10G16    29.89R
MADISON        CLEAR     70  55  60 W7        29.90R
WILLMAR        FAIR      70  64  83 SW5       29.90S
$$
MNZ033>034-036-042>043-049>051-058-059-290300-
   Central Minnesota

CITY           SKY/WX    TMP DP  RH WIND       PRES   REMARKS
ST CLOUD       CLEAR     71  59  65 W6        29.86R
SAUK CENTRE    FAIR      67  59  74 SW6       29.86S
PAYNESVILLE    CLEAR     66  59  76 S3        29.88S
AITKIN         CLEAR     73  59  60 SW7       29.81R
PINE RIVER     CLEAR     70  57  64 SW6       29.84S
BRAINERD       CLEAR     72  58  61 SW13      29.82R
STAPLES        CLEAR     70  55  60 SW6       29.82S
LONG PRAIRIE   FAIR      68  55  64 S6        29.85S
LITTLE FALLS   CLEAR     70  55  60 SW3       29.84S
LITCHFIELD     CLEAR     73  63  68 SW3       29.89S
BUFFALO        CLEAR     74  60  61 W6        29.89R
MAPLE LAKE     CLEAR     75  61  60 W3        29.88R
$$
MNZ037-044-045-052-053-290300-
   East Central Minnesota

CITY           SKY/WX    TMP DP  RH WIND       PRES   REMARKS
PRINCETON      CLEAR     73  61  64 W12       29.86R
MORA           CLEAR     73  59  60 W9G16     29.85R
CAMBRIDGE      CLEAR     79  61  53 W9        29.84R
RUSH CITY      MOCLDY    77  59  54 W15G28    29.84R
MOOSE LAKE     MOCLDY    73  68  83 SW10      29.79R
HINCKLEY       MOCLDY    75  70  83 W16       29.82R
CLOQUET        CLOUDY    75  66  73 SW8       29.79S
MCGREGOR       CLEAR     73  59  60 W9        29.82R
$$
MNZ071>073-080-081-089-090-097-098-290300-
   Southwest Minnesota

CITY           SKY/WX    TMP DP  RH WIND       PRES   REMARKS
MONTEVIDEO     CLEAR     72  57  60 W6        29.91R
GRANITE FALLS  CLEAR     68  60  77 CALM      29.91S
CANBY          CLEAR     71  56  60 W5        29.92R
MARSHALL       CLEAR     70  57  64 SW8       29.93S
REDWOOD FALLS  CLEAR     73  60  63 SW7       29.90R
OLIVIA         CLEAR     68  61  77 SW6       29.89S
PIPESTONE      CLEAR     68  59  73 W6        29.96S
WINDOM         CLEAR     70  61  73 CALM      29.95R
WORTHINGTON    CLEAR     68  57  68 W6        29.95S
JACKSON        CLEAR     70  61  73 W3        29.97R
TRACY          CLEAR     70  63  78 SW6       29.93F
SLAYTON        CLEAR     69  58  68 CALM      29.96R
$$
MNZ065>067-074>077-082>085-091>093-290300-
   South Central Minnesota

CITY           SKY/WX    TMP DP  RH WIND       PRES   REMARKS
MANKATO        CLEAR     75  63  64 W8        29.90R
NEW ULM        CLEAR     70  61  73 W6        29.92R
ST JAMES       CLEAR     72  63  73 W8        29.94R
FAIRMONT       CLEAR     73  57  56 NW10      29.92R
GLENCOE        CLEAR     74  64  71 W5        29.89R
FARIBAULT      MOCLDY    75  64  69 W10       29.90R
OWATONNA       MOCLDY    75  72  88 SW5       29.90R
WASECA         MOCLDY    72  70  94 SW5       29.92R
ALBERT LEA     CLOUDY    75  73  94 CALM      29.91S
$$
MNZ078>079-086>088-094>096-290300-
   Southeast Minnesota

CITY           SKY/WX    TMP DP  RH WIND       PRES   REMARKS
ROCHESTER      CLOUDY    76  71  85 SW10      29.91R
RED WING       CLOUDY    79  73  83 W3        29.84R
STANTON        CLOUDY    78  71  77 SW6       29.86R
DODGE CENTER   CLOUDY    75  72  88 SW10      29.91R
WINONA         CLOUDY    79  70  73 SW5       29.87S
AUSTIN         CLOUDY    77  72  83 W8        29.91R
PRESTON        CLOUDY    75  71  86 S6        29.92R
$$
ABBREVIATIONS USED IN REMARKS
   TC - TEMPERATURES IN CELSIUS
  WCI - WIND CHILL INDEX
   HX - HEAT INDEX
  VSB - VISIBILITY
$$


USA.gov is the U.S. government's official web portal to all federal, state and local government web resources and services.